Time,TemperatureF,DewpointF,PressureIn,WindDirection,WindDirectionDegrees,WindSpeedMPH,WindSpeedGustMPH,Humidity,HourlyPrecipIn,Conditions,Clouds,dailyrainin,SoftwareType,DateUTC
2013-05-24 00:00:00,77.4,71.1,30.00,ESE,113,2.0,2.0,81,0.00,,,0.00,Wunderground v.1.15,2013-05-24 05:00:00,
2013-05-24 00:06:00,77.2,70.9,30.00,ESE,120,3.0,9.0,81,0.00,,,0.00,Wunderground v.1.15,2013-05-24 05:06:00,
2013-05-24 00:11:00,77.1,71.2,30.00,SE,143,3.0,6.0,82,0.00,,,0.00,Wunderground v.1.15,2013-05-24 05:11:00,
2013-05-24 00:17:00,76.9,71.0,30.00,SE,132,3.0,6.0,82,0.00,,,0.00,Wunderground v.1.15,2013-05-24 05:17:00,
2013-05-24 00:22:00,76.8,70.5,29.99,SE,130,4.0,8.0,81,0.00,,,0.00,Wunderground v.1.15,2013-05-24 05:22:00,
2013-05-24 00:27:00,76.7,70.4,29.99,ESE,111,5.0,8.0,81,0.00,,,0.00,Wunderground v.1.15,2013-05-24 05:27:00,
2013-05-24 00:33:00,76.7,70.4,29.99,East,92,5.0,5.0,81,0.00,,,0.00,Wunderground v.1.15,2013-05-24 05:33:00,
2013-05-24 00:39:00,76.7,70.1,29.99,ESE,110,5.0,9.0,80,0.00,,,0.00,Wunderground v.1.15,2013-05-24 05:39:00,
2013-05-24 00:44:00,76.7,70.1,29.99,ESE,117,5.0,10.0,80,0.00,,,0.00,Wunderground v.1.15,2013-05-24 05:44:00,
2013-05-24 00:50:00,76.6,70.0,29.99,SE,138,5.0,5.0,80,0.00,,,0.00,Wunderground v.1.15,2013-05-24 05:50:00,
2013-05-24 00:56:00,76.6,70.0,29.99,ESE,112,4.0,8.0,80,0.00,,,0.00,Wunderground v.1.15,2013-05-24 05:56:00,
2013-05-24 01:01:00,76.6,70.0,29.99,East,83,4.0,4.0,80,0.00,,,0.00,Wunderground v.1.15,2013-05-24 06:01:00,
2013-05-24 01:07:00,76.7,69.7,30.00,SE,134,5.0,11.0,79,0.00,,,0.00,Wunderground v.1.15,2013-05-24 06:07:00,
2013-05-24 01:13:00,76.7,69.7,30.00,NE,46,5.0,5.0,79,0.00,,,0.00,Wunderground v.1.15,2013-05-24 06:13:00,
2013-05-24 01:19:00,76.8,69.8,30.00,SE,130,3.0,5.0,79,0.00,,,0.00,Wunderground v.1.15,2013-05-24 06:19:00,
2013-05-24 01:25:00,76.8,69.8,30.01,SE,130,2.0,3.0,79,0.00,,,0.00,Wunderground v.1.15,2013-05-24 06:25:00,
2013-05-24 01:31:00,76.7,69.7,30.00,ESE,115,2.0,2.0,79,0.00,,,0.00,Wunderground v.1.15,2013-05-24 06:31:00,
2013-05-24 01:42:00,76.4,69.0,30.00,SSE,148,3.0,5.0,79,0.00,,,0.00,weatherlink.com 1.10,2013-05-24 06:42:00,
2013-05-24 01:57:00,76.0,69.0,30.00,SE,127,3.0,6.0,80,0.00,,,0.00,weatherlink.com 1.10,2013-05-24 06:57:00,
2013-05-24 02:12:00,75.8,69.0,29.98,SSE,153,3.0,9.0,80,0.00,,,0.00,weatherlink.com 1.10,2013-05-24 07:12:00,
2013-05-24 02:27:00,75.7,69.0,29.99,East,101,5.0,5.0,80,0.00,,,0.00,weatherlink.com 1.10,2013-05-24 07:27:00,
2013-05-24 02:42:00,75.5,69.0,30.00,East,92,1.0,3.0,81,0.00,,,0.00,weatherlink.com 1.10,2013-05-24 07:42:00,
2013-05-24 02:57:00,74.8,69.0,30.00,East,88,3.0,5.0,83,0.00,,,0.00,weatherlink.com 1.10,2013-05-24 07:57:00,
2013-05-24 03:12:00,74.3,69.0,30.00,East,100,1.0,4.0,84,0.00,,,0.00,weatherlink.com 1.10,2013-05-24 08:12:00,
2013-05-24 03:27:00,74.1,69.0,30.00,ESE,115,0.0,3.0,85,0.00,,,0.00,weatherlink.com 1.10,2013-05-24 08:27:00,
2013-05-24 03:42:00,73.9,69.0,30.01,SE,142,0.0,3.0,85,0.00,,,0.00,weatherlink.com 1.10,2013-05-24 08:42:00,
2013-05-24 03:57:00,73.7,69.0,30.02,SSE,150,0.0,4.0,86,0.00,,,0.00,weatherlink.com 1.10,2013-05-24 08:57:00,
2013-05-24 04:12:00,73.4,69.0,30.01,SE,134,2.0,5.0,87,0.00,,,0.00,weatherlink.com 1.10,2013-05-24 09:12:00,
2013-05-24 04:27:00,73.5,69.0,30.01,SE,134,1.0,5.0,86,0.00,,,0.00,weatherlink.com 1.10,2013-05-24 09:27:00,
2013-05-24 04:42:00,73.6,69.0,30.02,NNE,26,2.0,5.0,86,0.00,,,0.00,weatherlink.com 1.10,2013-05-24 09:42:00,
2013-05-24 04:57:00,73.5,69.0,30.02,ESE,121,1.0,4.0,86,0.00,,,0.00,weatherlink.com 1.10,2013-05-24 09:57:00,
2013-05-24 05:12:00,73.2,69.0,30.02,SSE,147,0.0,3.0,87,0.00,,,0.00,weatherlink.com 1.10,2013-05-24 10:12:00,
2013-05-24 05:27:00,72.9,69.0,30.02,SE,133,0.0,3.0,88,0.00,,,0.00,weatherlink.com 1.10,2013-05-24 10:27:00,
2013-05-24 05:42:00,72.8,69.0,30.02,SE,131,2.0,3.0,88,0.00,,,0.00,weatherlink.com 1.10,2013-05-24 10:42:00,
2013-05-24 05:57:00,72.5,69.0,30.03,East,92,1.0,4.0,89,0.00,,,0.00,weatherlink.com 1.10,2013-05-24 10:57:00,
2013-05-24 06:13:00,72.2,69.0,30.04,ESE,104,0.0,5.0,90,0.00,,,0.00,weatherlink.com 1.10,2013-05-24 11:13:00,
2013-05-24 06:28:00,72.2,69.0,30.04,East,93,1.0,7.0,90,0.00,,,0.00,weatherlink.com 1.10,2013-05-24 11:28:00,
2013-05-24 06:43:00,72.1,69.0,30.05,ENE,73,4.0,7.0,90,0.00,,,0.00,weatherlink.com 1.10,2013-05-24 11:43:00,
2013-05-24 06:58:00,72.2,70.0,30.04,ESE,123,2.0,7.0,91,0.00,,,0.00,weatherlink.com 1.10,2013-05-24 11:58:00,
2013-05-24 07:08:00,72.4,69.3,30.05,SE,126,3.0,3.0,90,0.00,,,0.00,Wunderground v.1.15,2013-05-24 12:08:00,
2013-05-24 07:14:00,72.5,69.4,30.05,SSE,158,3.0,6.0,90,0.00,,,0.00,Wunderground v.1.15,2013-05-24 12:14:00,
2013-05-24 07:20:00,72.7,69.6,30.06,East,92,3.0,3.0,90,0.00,,,0.00,Wunderground v.1.15,2013-05-24 12:20:00,
2013-05-24 07:26:00,72.9,69.8,30.06,ENE,70,3.0,4.0,90,0.00,,,0.00,Wunderground v.1.15,2013-05-24 12:26:00,
2013-05-24 07:31:00,73.1,70.0,30.07,East,90,2.0,2.0,90,0.00,,,0.00,Wunderground v.1.15,2013-05-24 12:31:00,
2013-05-24 07:37:00,73.3,69.9,30.08,ENE,70,2.0,2.0,89,0.00,,,0.00,Wunderground v.1.15,2013-05-24 12:37:00,
2013-05-24 07:43:00,73.4,70.0,30.08,East,86,2.0,5.0,90,0.00,,,0.00,weatherlink.com 1.10,2013-05-24 12:43:00,
2013-05-24 07:48:00,73.5,70.1,30.08,ENE,64,2.0,7.0,89,0.00,,,0.00,Wunderground v.1.15,2013-05-24 12:48:00,
2013-05-24 07:54:00,73.7,70.3,30.08,ENE,65,2.0,3.0,89,0.00,,,0.00,Wunderground v.1.15,2013-05-24 12:54:00,
2013-05-24 08:00:00,73.8,70.4,30.09,ESE,106,2.0,2.0,89,0.00,,,0.00,Wunderground v.1.15,2013-05-24 13:00:00,
2013-05-24 08:06:00,74.0,70.6,30.09,ESE,115,2.0,2.0,89,0.00,,,0.00,Wunderground v.1.15,2013-05-24 13:06:00,
2013-05-24 08:11:00,74.1,70.6,30.09,East,101,2.0,3.0,89,0.00,,,0.00,Wunderground v.1.15,2013-05-24 13:11:00,
2013-05-24 08:17:00,74.5,71.0,30.09,ESE,122,2.0,3.0,89,0.00,,,0.00,Wunderground v.1.15,2013-05-24 13:17:00,
2013-05-24 08:23:00,75.1,71.3,30.10,ESE,105,2.0,4.0,88,0.00,,,0.00,Wunderground v.1.15,2013-05-24 13:23:00,
2013-05-24 08:29:00,75.7,72.0,30.10,SE,129,3.0,7.0,87,0.00,,,0.00,weatherlink.com 1.10,2013-05-24 13:29:00,
2013-05-24 08:34:00,76.3,71.8,30.10,East,96,2.0,5.0,86,0.00,,,0.00,Wunderground v.1.15,2013-05-24 13:34:00,
2013-05-24 08:39:00,76.7,71.8,30.10,ESE,110,2.0,5.0,85,0.00,,,0.00,Wunderground v.1.15,2013-05-24 13:39:00,
2013-05-24 08:44:00,77.1,71.9,30.10,East,97,2.0,4.0,84,0.00,,,0.00,Wunderground v.1.15,2013-05-24 13:44:00,
2013-05-24 08:49:00,77.5,72.3,30.10,East,97,2.0,5.0,84,0.00,,,0.00,Wunderground v.1.15,2013-05-24 13:49:00,
2013-05-24 08:54:00,77.9,72.3,30.10,SE,128,3.0,5.0,83,0.00,,,0.00,Wunderground v.1.15,2013-05-24 13:54:00,
2013-05-24 09:00:00,78.5,72.9,30.10,SE,132,3.0,5.0,83,0.00,,,0.00,Wunderground v.1.15,2013-05-24 14:00:00,
2013-05-24 09:05:00,78.9,72.6,30.10,South,191,4.0,8.0,81,0.00,,,0.00,Wunderground v.1.15,2013-05-24 14:05:00,
2013-05-24 09:10:00,79.4,73.1,30.10,SSE,149,3.0,5.0,81,0.00,,,0.00,Wunderground v.1.15,2013-05-24 14:10:00,
2013-05-24 09:16:00,79.9,73.2,30.11,SE,132,3.0,8.0,80,0.00,,,0.00,Wunderground v.1.15,2013-05-24 14:16:00,
2013-05-24 09:21:00,80.2,73.1,30.11,SE,132,2.0,3.0,79,0.00,,,0.00,Wunderground v.1.15,2013-05-24 14:21:00,
2013-05-24 09:27:00,80.7,73.2,30.11,SE,131,2.0,4.0,78,0.00,,,0.00,Wunderground v.1.15,2013-05-24 14:27:00,
2013-05-24 09:33:00,80.4,72.9,30.11,East,93,2.0,3.0,78,0.00,,,0.00,Wunderground v.1.15,2013-05-24 14:33:00,
2013-05-24 09:39:00,79.6,72.5,30.11,ESE,119,1.0,4.0,79,0.00,,,0.00,Wunderground v.1.15,2013-05-24 14:39:00,
2013-05-24 09:45:00,79.4,72.7,30.11,SSE,150,2.0,3.0,80,0.00,,,0.00,Wunderground v.1.15,2013-05-24 14:45:00,
2013-05-24 09:51:00,80.3,73.2,30.11,ESE,115,2.0,3.0,79,0.00,,,0.00,Wunderground v.1.15,2013-05-24 14:51:00,
2013-05-24 09:56:00,80.5,72.6,30.11,ESE,114,2.0,6.0,77,0.00,,,0.00,Wunderground v.1.15,2013-05-24 14:56:00,
2013-05-24 10:01:00,80.6,73.5,30.11,SSE,147,2.0,3.0,79,0.00,,,0.00,Wunderground v.1.15,2013-05-24 15:01:00,
2013-05-24 10:07:00,80.6,73.1,30.11,East,88,1.0,3.0,78,0.00,,,0.00,Wunderground v.1.15,2013-05-24 15:07:00,
2013-05-24 10:12:00,80.7,73.2,30.11,SE,128,1.0,4.0,78,0.00,,,0.00,Wunderground v.1.15,2013-05-24 15:12:00,
2013-05-24 10:18:00,80.9,73.4,30.11,SE,134,2.0,6.0,78,0.00,,,0.00,Wunderground v.1.15,2013-05-24 15:18:00,
2013-05-24 10:24:00,80.5,73.0,30.11,East,79,3.0,4.0,78,0.00,,,0.00,Wunderground v.1.15,2013-05-24 15:24:00,
2013-05-24 10:29:00,80.9,73.0,30.11,NE,52,2.0,6.0,78,0.00,,,0.00,weatherlink.com 1.10,2013-05-24 15:29:00,
2013-05-24 10:35:00,81.1,73.2,30.11,SE,126,2.0,4.0,77,0.00,,,0.00,Wunderground v.1.15,2013-05-24 15:35:00,
2013-05-24 10:41:00,81.8,73.5,30.11,ESE,121,2.0,4.0,76,0.00,,,0.00,Wunderground v.1.15,2013-05-24 15:41:00,
2013-05-24 10:46:00,81.5,72.8,30.11,SE,136,2.0,5.0,75,0.00,,,0.00,Wunderground v.1.15,2013-05-24 15:46:00,
2013-05-24 10:51:00,81.0,72.7,30.11,SE,136,3.0,3.0,76,0.00,,,0.00,Wunderground v.1.15,2013-05-24 15:51:00,
2013-05-24 10:57:00,81.3,73.0,30.11,ESE,106,3.0,5.0,76,0.00,,,0.00,Wunderground v.1.15,2013-05-24 15:57:00,
2013-05-24 11:03:00,82.0,74.5,30.11,ESE,109,2.0,4.0,78,0.00,,,0.00,Wunderground v.1.15,2013-05-24 16:03:00,
2013-05-24 11:08:00,83.1,73.9,30.11,SE,135,2.0,4.0,74,0.00,,,0.00,Wunderground v.1.15,2013-05-24 16:08:00,
2013-05-24 11:14:00,82.9,73.4,30.11,SE,133,3.0,7.0,73,0.00,,,0.00,Wunderground v.1.15,2013-05-24 16:14:00,
2013-05-24 11:20:00,82.5,73.0,30.12,ESE,113,4.0,4.0,73,0.00,,,0.00,Wunderground v.1.15,2013-05-24 16:20:00,
2013-05-24 11:25:00,82.5,72.6,30.12,SSW,200,3.0,5.0,72,0.00,,,0.00,Wunderground v.1.15,2013-05-24 16:25:00,
2013-05-24 11:31:00,82.4,72.9,30.12,SE,142,3.0,4.0,73,0.00,,,0.00,Wunderground v.1.15,2013-05-24 16:31:00,
2013-05-24 11:37:00,83.5,73.5,30.12,South,173,3.0,4.0,72,0.00,,,0.00,Wunderground v.1.15,2013-05-24 16:37:00,
2013-05-24 11:43:00,84.5,73.6,30.12,ESE,116,3.0,5.0,70,0.00,,,0.00,Wunderground v.1.15,2013-05-24 16:43:00,
2013-05-24 11:49:00,84.5,71.9,30.12,SSW,200,4.0,7.0,66,0.00,,,0.00,Wunderground v.1.15,2013-05-24 16:49:00,
2013-05-24 11:55:00,85.2,73.0,30.12,ESE,122,4.0,4.0,67,0.00,,,0.00,Wunderground v.1.15,2013-05-24 16:55:00,
2013-05-24 12:00:00,85.3,73.1,30.12,SSW,196,3.0,3.0,67,0.00,,,0.00,Wunderground v.1.15,2013-05-24 17:00:00,
2013-05-24 12:06:00,84.7,73.0,30.12,South,171,3.0,3.0,68,0.00,,,0.00,Wunderground v.1.15,2013-05-24 17:06:00,
2013-05-24 12:11:00,85.0,72.8,30.12,SE,136,3.0,5.0,67,0.00,,,0.00,Wunderground v.1.15,2013-05-24 17:11:00,
2013-05-24 12:17:00,85.3,72.6,30.12,South,174,3.0,5.0,66,0.00,,,0.00,Wunderground v.1.15,2013-05-24 17:17:00,
2013-05-24 12:23:00,84.8,72.2,30.12,South,182,4.0,5.0,66,0.00,,,0.00,Wunderground v.1.15,2013-05-24 17:23:00,
2013-05-24 12:28:00,84.9,71.4,30.12,ESE,102,4.0,5.0,64,0.00,,,0.00,Wunderground v.1.15,2013-05-24 17:28:00,
2013-05-24 12:34:00,84.7,72.5,30.12,SE,134,4.0,6.0,67,0.00,,,0.00,Wunderground v.1.15,2013-05-24 17:34:00,
2013-05-24 12:39:00,84.9,72.3,30.12,SSE,168,4.0,6.0,66,0.00,,,0.00,Wunderground v.1.15,2013-05-24 17:39:00,
2013-05-24 12:45:00,85.9,72.3,30.12,South,172,3.0,5.0,64,0.00,,,0.00,Wunderground v.1.15,2013-05-24 17:45:00,
2013-05-24 12:51:00,85.5,72.4,30.11,SSE,155,3.0,5.0,65,0.00,,,0.00,Wunderground v.1.15,2013-05-24 17:51:00,
2013-05-24 12:56:00,85.6,72.0,30.11,SSE,151,3.0,10.0,64,0.00,,,0.00,Wunderground v.1.15,2013-05-24 17:56:00,
2013-05-24 13:02:00,86.0,72.9,30.11,SSE,163,3.0,4.0,65,0.00,,,0.00,Wunderground v.1.15,2013-05-24 18:02:00,
2013-05-24 13:07:00,86.0,71.9,30.11,SE,130,4.0,5.0,63,0.00,,,0.00,Wunderground v.1.15,2013-05-24 18:07:00,
2013-05-24 13:13:00,85.3,72.2,30.11,South,180,3.0,6.0,65,0.00,,,0.00,Wunderground v.1.15,2013-05-24 18:13:00,
2013-05-24 13:18:00,84.8,72.2,30.11,South,183,3.0,6.0,66,0.00,,,0.00,Wunderground v.1.15,2013-05-24 18:18:00,
2013-05-24 13:24:00,84.5,71.9,30.11,SSE,168,4.0,5.0,66,0.00,,,0.00,Wunderground v.1.15,2013-05-24 18:24:00,
2013-05-24 13:30:00,84.4,72.2,30.11,SE,137,4.0,4.0,67,0.00,,,0.00,Wunderground v.1.15,2013-05-24 18:30:00,
2013-05-24 13:36:00,84.9,72.3,30.11,SSE,166,3.0,4.0,66,0.00,,,0.00,Wunderground v.1.15,2013-05-24 18:36:00,
2013-05-24 13:42:00,86.1,72.5,30.10,South,185,3.0,5.0,64,0.00,,,0.00,Wunderground v.1.15,2013-05-24 18:42:00,
2013-05-24 13:48:00,86.3,73.1,30.10,SSE,153,3.0,6.0,65,0.00,,,0.00,Wunderground v.1.15,2013-05-24 18:48:00,
2013-05-24 13:54:00,87.2,73.5,30.10,South,188,3.0,5.0,64,0.00,,,0.00,Wunderground v.1.15,2013-05-24 18:54:00,
2013-05-24 14:00:00,87.2,73.0,30.09,SE,142,5.0,10.0,62,0.00,,,0.00,weatherlink.com 1.10,2013-05-24 19:00:00,
2013-05-24 14:06:00,87.4,73.3,30.09,SE,138,4.0,7.0,63,0.00,,,0.00,Wunderground v.1.15,2013-05-24 19:06:00,
2013-05-24 14:11:00,87.0,72.4,30.09,SSE,161,4.0,5.0,62,0.00,,,0.00,Wunderground v.1.15,2013-05-24 19:11:00,
2013-05-24 14:16:00,86.9,71.8,30.09,SSE,158,4.0,7.0,61,0.00,,,0.00,Wunderground v.1.15,2013-05-24 19:16:00,
2013-05-24 14:22:00,86.9,71.3,30.08,SE,129,4.0,5.0,60,0.00,,,0.00,Wunderground v.1.15,2013-05-24 19:22:00,
2013-05-24 14:27:00,87.0,71.9,30.08,SE,128,4.0,9.0,61,0.00,,,0.00,Wunderground v.1.15,2013-05-24 19:27:00,
2013-05-24 14:33:00,87.3,71.2,30.08,South,183,5.0,10.0,59,0.00,,,0.00,Wunderground v.1.15,2013-05-24 19:33:00,
2013-05-24 14:38:00,87.6,72.5,30.08,SSE,157,5.0,10.0,61,0.00,,,0.00,Wunderground v.1.15,2013-05-24 19:38:00,
2013-05-24 14:44:00,86.9,71.8,30.07,SE,140,4.0,5.0,61,0.00,,,0.00,Wunderground v.1.15,2013-05-24 19:44:00,
2013-05-24 14:49:00,86.1,71.6,30.08,South,170,4.0,6.0,62,0.00,,,0.00,Wunderground v.1.15,2013-05-24 19:49:00,
2013-05-24 14:55:00,85.4,71.8,30.07,SSE,160,4.0,4.0,64,0.00,,,0.00,Wunderground v.1.15,2013-05-24 19:55:00,
2013-05-24 15:00:00,85.4,71.8,30.08,SW,215,3.0,3.0,64,0.00,,,0.00,Wunderground v.1.15,2013-05-24 20:00:00,
2013-05-24 15:06:00,86.0,71.9,30.07,SSE,165,2.0,4.0,63,0.00,,,0.00,Wunderground v.1.15,2013-05-24 20:06:00,
2013-05-24 15:11:00,86.7,73.5,30.06,SE,140,3.0,5.0,65,0.00,,,0.00,Wunderground v.1.15,2013-05-24 20:11:00,
2013-05-24 15:16:00,86.9,72.8,30.06,SE,135,4.0,8.0,63,0.00,,,0.00,Wunderground v.1.15,2013-05-24 20:16:00,
2013-05-24 15:21:00,87.6,72.0,30.06,SSE,155,4.0,5.0,60,0.00,,,0.00,Wunderground v.1.15,2013-05-24 20:21:00,
2013-05-24 15:26:00,87.7,72.6,30.06,South,183,4.0,7.0,61,0.00,,,0.00,Wunderground v.1.15,2013-05-24 20:26:00,
2013-05-24 15:32:00,88.5,72.8,30.06,SW,227,3.0,4.0,60,0.00,,,0.00,Wunderground v.1.15,2013-05-24 20:32:00,
2013-05-24 15:38:00,87.8,72.2,30.06,South,169,3.0,5.0,60,0.00,,,0.00,Wunderground v.1.15,2013-05-24 20:38:00,
2013-05-24 15:44:00,87.2,72.1,30.05,South,186,2.0,8.0,61,0.00,,,0.00,Wunderground v.1.15,2013-05-24 20:44:00,
2013-05-24 15:50:00,87.4,71.3,30.05,SSE,162,2.0,5.0,59,0.00,,,0.00,Wunderground v.1.15,2013-05-24 20:50:00,
2013-05-24 15:56:00,87.0,71.4,30.05,SSE,164,2.0,9.0,60,0.00,,,0.00,Wunderground v.1.15,2013-05-24 20:56:00,
2013-05-24 16:02:00,86.2,72.1,30.05,SSE,161,2.0,3.0,63,0.00,,,0.00,Wunderground v.1.15,2013-05-24 21:02:00,
2013-05-24 16:07:00,85.2,72.6,30.05,East,100,2.0,4.0,66,0.00,,,0.00,Wunderground v.1.15,2013-05-24 21:07:00,
2013-05-24 16:12:00,84.3,72.1,30.05,ESE,117,3.0,3.0,67,0.00,,,0.00,Wunderground v.1.15,2013-05-24 21:12:00,
2013-05-24 16:17:00,83.2,72.4,30.06,ESE,106,2.0,6.0,70,0.00,,,0.00,Wunderground v.1.15,2013-05-24 21:17:00,
2013-05-24 16:23:00,81.7,72.2,30.05,ESE,113,2.0,3.0,73,0.00,,,0.00,Wunderground v.1.15,2013-05-24 21:23:00,
2013-05-24 16:29:00,81.0,72.3,30.04,ENE,58,2.0,4.0,75,0.00,,,0.00,Wunderground v.1.15,2013-05-24 21:29:00,
2013-05-24 16:35:00,81.0,72.7,30.05,East,88,2.0,2.0,76,0.00,,,0.00,Wunderground v.1.15,2013-05-24 21:35:00,
2013-05-24 16:40:00,81.4,72.3,30.05,NNW,327,2.0,2.0,74,0.00,,,0.00,Wunderground v.1.15,2013-05-24 21:40:00,
2013-05-24 16:46:00,82.2,72.3,30.04,ESE,109,3.0,7.0,72,0.00,,,0.00,Wunderground v.1.15,2013-05-24 21:46:00,
2013-05-24 16:52:00,82.7,72.3,30.04,ESE,103,3.0,4.0,71,0.00,,,0.00,Wunderground v.1.15,2013-05-24 21:52:00,
2013-05-24 16:58:00,83.3,72.5,30.04,ESE,121,3.0,8.0,70,0.00,,,0.00,Wunderground v.1.15,2013-05-24 21:58:00,
2013-05-24 17:04:00,83.2,72.0,30.03,SE,142,5.0,8.0,69,0.00,,,0.00,Wunderground v.1.15,2013-05-24 22:04:00,
2013-05-24 17:10:00,83.2,72.4,30.03,East,87,5.0,5.0,70,0.00,,,0.00,Wunderground v.1.15,2013-05-24 22:10:00,
2013-05-24 17:15:00,83.3,73.0,30.04,ESE,121,5.0,11.0,70,0.00,,,0.00,weatherlink.com 1.10,2013-05-24 22:15:00,
2013-05-24 17:20:00,83.2,72.4,30.03,ESE,119,4.0,8.0,70,0.00,,,0.00,Wunderground v.1.15,2013-05-24 22:20:00,
2013-05-24 17:25:00,83.3,72.5,30.03,ESE,110,4.0,8.0,70,0.00,,,0.00,Wunderground v.1.15,2013-05-24 22:25:00,
2013-05-24 17:30:00,83.2,72.0,30.03,ENE,66,4.0,10.0,70,0.00,,,0.00,weatherlink.com 1.10,2013-05-24 22:30:00,
2013-05-24 17:35:00,83.1,72.3,30.03,SE,136,3.0,4.0,70,0.00,,,0.00,Wunderground v.1.15,2013-05-24 22:35:00,
2013-05-24 17:40:00,83.0,72.2,30.04,East,101,4.0,10.0,70,0.00,,,0.00,Wunderground v.1.15,2013-05-24 22:40:00,
2013-05-24 17:46:00,82.8,72.0,30.03,SE,135,3.0,12.0,69,0.00,,,0.00,weatherlink.com 1.10,2013-05-24 22:46:00,
2013-05-24 17:51:00,82.7,71.9,30.03,SE,144,4.0,5.0,70,0.00,,,0.00,Wunderground v.1.15,2013-05-24 22:51:00,
2013-05-24 17:57:00,82.7,71.9,30.03,NE,46,4.0,9.0,70,0.00,,,0.00,Wunderground v.1.15,2013-05-24 22:57:00,
2013-05-24 18:02:00,82.4,72.0,30.04,SE,141,5.0,12.0,70,0.00,,,0.00,weatherlink.com 1.10,2013-05-24 23:02:00,
2013-05-24 18:07:00,82.3,71.5,30.03,ESE,121,6.0,13.0,70,0.00,,,0.00,Wunderground v.1.15,2013-05-24 23:07:00,
2013-05-24 18:13:00,82.1,71.3,30.03,South,172,5.0,7.0,70,0.00,,,0.00,Wunderground v.1.15,2013-05-24 23:13:00,
2013-05-24 18:19:00,82.0,71.7,30.04,SSW,202,4.0,10.0,71,0.00,,,0.00,Wunderground v.1.15,2013-05-24 23:19:00,
2013-05-24 18:24:00,81.9,71.6,30.04,South,169,4.0,7.0,71,0.00,,,0.00,Wunderground v.1.15,2013-05-24 23:24:00,
2013-05-24 18:30:00,81.8,71.5,30.04,ESE,121,4.0,4.0,71,0.00,,,0.00,Wunderground v.1.15,2013-05-24 23:30:00,
2013-05-24 18:35:00,81.5,71.6,30.05,SSE,157,4.0,8.0,72,0.00,,,0.00,Wunderground v.1.15,2013-05-24 23:35:00,
2013-05-24 18:41:00,81.4,71.9,30.05,SE,144,3.0,4.0,73,0.00,,,0.00,Wunderground v.1.15,2013-05-24 23:41:00,
2013-05-24 18:47:00,81.2,71.7,30.05,ESE,119,3.0,8.0,73,0.00,,,0.00,Wunderground v.1.15,2013-05-24 23:47:00,
2013-05-24 18:53:00,81.1,71.6,30.05,ESE,111,4.0,4.0,73,0.00,,,0.00,Wunderground v.1.15,2013-05-24 23:53:00,
2013-05-24 18:59:00,80.9,71.4,30.05,SE,128,4.0,10.0,73,0.00,,,0.00,Wunderground v.1.15,2013-05-24 23:59:00,
2013-05-24 19:05:00,80.8,71.7,30.05,SE,137,2.0,3.0,74,0.00,,,0.00,Wunderground v.1.15,2013-05-25 00:05:00,
2013-05-24 19:10:00,80.7,71.6,30.05,ESE,117,1.0,1.0,74,0.00,,,0.00,Wunderground v.1.15,2013-05-25 00:10:00,
2013-05-24 19:15:00,80.4,72.0,30.05,East,101,2.0,7.0,75,0.00,,,0.00,weatherlink.com 1.10,2013-05-25 00:15:00,
2013-05-24 19:21:00,80.3,71.6,30.06,SE,130,2.0,2.0,75,0.00,,,0.00,Wunderground v.1.15,2013-05-25 00:21:00,
2013-05-24 19:27:00,80.2,71.6,30.06,SE,125,1.0,2.0,75,0.00,,,0.00,Wunderground v.1.15,2013-05-25 00:27:00,
2013-05-24 19:33:00,80.1,71.8,30.06,SE,140,2.0,2.0,76,0.00,,,0.00,Wunderground v.1.15,2013-05-25 00:33:00,
2013-05-24 19:38:00,80.0,71.8,30.06,ESE,113,2.0,3.0,76,0.00,,,0.00,Wunderground v.1.15,2013-05-25 00:38:00,
2013-05-24 22:30:00,68.9,66.2,30.14,WSW,251,3.0,3.0,91,0.52,,,0.87,Wunderground v.1.15,2013-05-25 03:30:00,
2013-05-24 22:35:00,68.7,66.0,30.16,South,173,1.0,3.0,91,0.30,,,0.89,Wunderground v.1.15,2013-05-25 03:35:00,
2013-05-24 22:41:00,68.4,65.7,30.18,SE,135,2.0,4.0,91,0.15,,,0.91,Wunderground v.1.15,2013-05-25 03:41:00,
2013-05-24 22:46:00,68.3,65.9,30.17,South,171,3.0,5.0,92,1.57,,,0.95,Wunderground v.1.15,2013-05-25 03:46:00,
2013-05-24 22:51:00,68.1,65.7,30.17,SSE,159,3.0,6.0,92,1.82,,,1.07,Wunderground v.1.15,2013-05-25 03:51:00,
2013-05-24 22:57:00,67.9,65.5,30.16,SSE,165,2.0,6.0,92,0.51,,,1.17,Wunderground v.1.15,2013-05-25 03:57:00,
2013-05-24 23:01:00,67.9,65.8,30.16,SSE,162,2.0,2.0,93,0.28,,,1.19,Wunderground v.1.15,2013-05-25 04:01:00,
2013-05-24 23:02:00,67.9,66.0,30.16,SSE,162,1.0,6.0,93,0.71,,,1.19,weatherlink.com 1.10,2013-05-25 04:02:00,
2013-05-24 23:03:00,67.9,65.8,30.16,SSE,155,2.0,2.0,93,0.14,,,1.19,Wunderground v.1.15,2013-05-25 04:03:00,
2013-05-24 23:06:00,67.9,65.8,30.16,South,180,2.0,2.0,93,0.08,,,1.19,Wunderground v.1.15,2013-05-25 04:06:00,
2013-05-24 23:12:00,67.9,65.8,30.17,SSE,168,2.0,2.0,93,0.05,,,1.19,Wunderground v.1.15,2013-05-25 04:12:00,
2013-05-24 23:17:00,67.9,65.8,30.17,South,180,1.0,2.0,93,0.00,,,1.19,Wunderground v.1.15,2013-05-25 04:17:00,
2013-05-24 23:23:00,68.0,65.9,30.16,SSE,156,0.0,1.0,93,0.00,,,1.20,Wunderground v.1.15,2013-05-25 04:23:00,
2013-05-24 23:29:00,68.0,65.9,30.15,NW,309,0.0,2.0,93,0.00,,,1.20,Wunderground v.1.15,2013-05-25 04:29:00,
2013-05-24 23:34:00,68.1,66.0,30.16,West,273,1.0,4.0,93,0.06,,,1.21,Wunderground v.1.15,2013-05-25 04:34:00,
2013-05-24 23:40:00,68.1,66.0,30.16,WNW,290,1.0,2.0,93,0.06,,,1.21,Wunderground v.1.15,2013-05-25 04:40:00,
2013-05-24 23:45:00,68.0,65.9,30.16,West,278,1.0,2.0,93,0.06,,,1.22,Wunderground v.1.15,2013-05-25 04:45:00,
2013-05-24 23:51:00,68.0,66.2,30.16,WNW,286,1.0,2.0,94,0.06,,,1.22,Wunderground v.1.15,2013-05-25 04:51:00,
2013-05-24 23:57:00,68.0,66.2,30.15,West,280,2.0,5.0,94,0.04,,,1.22,Wunderground v.1.15,2013-05-25 04:57:00,